This demonstration page uses our WeatherBlox Daily Observations layout. Learn more.

Left ArrowRight Arrow

Hourly Observations for July 20, 2016

Temp ( °F °C ) Dew Point ( °F °C ) Humidity (%) Winds ( mph kmh ) Pressure ( in mb ) Visibility ( mi km ) Precip ( " mm )
12:15 am 00:15 Clear 79 26.3 63 17 57 57 S 15 24 29.91 1013 10 16 N/A
12:35 am 00:35 Clear 80 26.4 62 16.8 56 56 S 15 24 29.91 1013 10 16 N/A
12:55 am 00:55 Clear 79 26.1 62 16.7 56 56 S 14 22 29.91 1013 10 16 N/A
1:15 am 01:15 Clear 78 25.7 62 16.9 58 58 S 12 19 29.91 1013 10 16 N/A
1:35 am 01:35 Clear 78 25.3 63 17 60 60 S 10 17 29.91 1013 10 16 N/A
1:55 am 01:55 Clear 76 24.5 63 17.2 64 64 S 10 17 29.91 1013 10 16 N/A
2:15 am 02:15 Clear 75 24.1 63 17.2 65 65 SSW 9 15 29.91 1013 10 16 N/A
2:35 am 02:35 Clear 75 23.9 63 17.3 67 67 SSW 8 13 29.91 1013 10 16 N/A
2:55 am 02:55 Clear 73 22.7 64 17.5 73 73 SSW 6 9 29.94 1014 10 16 N/A
3:15 am 03:15 Clear 73 22.5 64 17.7 74 74 SSW 7 11 29.94 1014 10 16 N/A
3:35 am 03:35 Clear 73 22.6 64 17.8 74 74 S 10 17 29.94 1014 10 16 N/A
3:55 am 03:55 Clear 73 22.8 64 17.6 73 73 SSW 9 15 29.94 1014 10 16 N/A
4:15 am 04:15 Clear 73 22.6 64 17.6 73 73 S 8 13 29.94 1014 10 16 N/A
4:35 am 04:35 Clear 70 21.3 64 17.7 80 80 S 6 9 29.94 1014 10 16 N/A
4:55 am 04:55 Clear 69 20.8 64 17.7 83 83 SE 5 7 29.94 1014 10 16 N/A
5:15 am 05:15 Clear 69 20.5 64 17.6 84 84 SE 5 7 29.94 1014 10 16 N/A
5:35 am 05:35 Clear 70 21 64 17.5 81 81 SE 6 9 29.94 1014 10 16 N/A
5:55 am 05:55 Clear 69 20.8 64 17.6 82 82 ESE 6 9 29.94 1014 10 16 N/A
6:15 am 06:15 Clear 70 21 64 17.5 81 81 ESE 3 6 29.94 1014 10 16 N/A
6:35 am 06:35 Sunny 69 20.7 64 17.5 82 82 SSE 6 9 29.94 1014 10 16 N/A
6:55 am 06:55 Sunny 70 21.1 64 17.5 80 80 E 3 6 29.94 1014 10 16 N/A
7:15 am 07:15 Sunny 71 21.5 64 17.8 80 80 N N/A 29.94 1014 10 16 N/A
7:35 am 07:35 Sunny 73 22.6 64 18 75 75 N N/A 29.94 1014 10 16 N/A
7:55 am 07:55 Sunny 74 23.2 65 18.1 73 73 SSE 5 7 29.94 1014 10 16 N/A
8:15 am 08:15 Sunny 75 24.1 65 18.5 71 71 S 8 13 29.91 1013 10 16 N/A
8:35 am 08:35 Sunny 76 24.6 66 19 71 71 S 8 13 29.91 1013 10 16 N/A
8:55 am 08:55 Sunny 78 25.6 67 19.2 68 68 S 8 13 29.91 1013 10 16 N/A
9:15 am 09:15 Sunny 79 26.3 66 18.9 64 64 S 10 17 29.91 1013 7 11 N/A
9:35 am 09:35 Sunny 81 27 66 19 62 62 S 9 15 29.91 1013 10 16 N/A
9:55 am 09:55 Sunny 82 27.6 66 18.8 59 59 SSW 10 17 29.88 1012 10 16 N/A
10:15 am 10:15 Sunny 82 28 66 18.7 57 57 S 10 17 29.88 1012 10 16 N/A
10:35 am 10:35 Sunny 83 28.5 67 19.2 57 57 SSW 10 17 29.88 1012 10 16 N/A
10:55 am 10:55 Sunny 84 28.7 66 18.7 55 55 S 10 17 29.88 1012 10 16 N/A
11:15 am 11:15 Sunny 85 29.2 65 18.6 53 53 SSW 12 19 29.88 1012 10 16 N/A
11:35 am 11:35 Sunny 85 29.7 67 19.3 54 54 S 12 19 29.88 1012 10 16 N/A
11:55 am 11:55 Sunny 86 30.1 67 19.3 52 52 S 9 15 29.88 1012 10 16 N/A
12:15 pm 12:15 Sunny 87 30.7 67 19.3 51 51 S 10 17 29.88 1012 10 16 N/A
12:35 pm 12:35 Sunny 88 31.2 67 19.6 50 50 SSE 9 15 29.85 1011 10 16 N/A
12:55 pm 12:55 Sunny 89 31.5 68 19.8 50 50 SE 13 20 29.83 1010 10 16 N/A
1:15 pm 13:15 Sunny 90 32 68 19.8 48 48 SSE 12 19 29.83 1010 10 16 N/A
1:35 pm 13:35 Sunny 90 32.2 68 20.1 49 49 SE 14 22 29.83 1010 10 16 N/A
1:55 pm 13:55 Sunny 90 32.4 68 20.2 49 49 SSE 15 24 29.83 1010 10 16 N/A
2:15 pm 14:15 Sunny 92 33.2 69 20.5 47 47 SSE 15 24 29.83 1010 10 16 N/A
2:35 pm 14:35 Sunny 92 33.6 69 20.6 46 46 SSE 15 24 29.83 1010 10 16 N/A
2:55 pm 14:55 Sunny 93 33.8 68 19.9 44 44 SE 13 20 29.80 1009 10 16 N/A
3:15 pm 15:15 Sunny 93 34 69 20.3 45 45 SSE 15 24 29.77 1008 10 16 N/A
3:35 pm 15:35 Sunny 94 34.5 69 20.6 44 44 SSE 13 20 29.77 1008 10 16 N/A
3:55 pm 15:55 Sunny 95 35 69 20.8 43 43 S 15 24 29.77 1008 10 16 N/A
4:15 pm 16:15 Sunny 96 35.5 68 19.8 40 40 SSE 12 19 29.77 1008 10 16 N/A
4:35 pm 16:35 Sunny 96 35.5 69 20.6 42 42 SSE 10 17 29.77 1008 10 16 N/A
4:55 pm 16:55 Sunny 96 35.6 69 20.5 41 41 SSE 10 17 29.74 1007 10 16 N/A
5:15 pm 17:15 Sunny 96 35.7 71 21.4 43 43 SSE 8 13 29.74 1007 10 16 N/A
5:35 pm 17:35 Sunny 96 35.8 70 21.3 43 43 SSE 8 13 29.74 1007 10 16 N/A
5:55 pm 17:55 Sunny 96 35.7 69 20.6 41 41 SSE 8 13 29.74 1007 10 16 N/A
6:15 pm 18:15 Sunny 96 35.8 69 20.8 42 42 SSE 7 11 29.74 1007 10 16 N/A
6:35 pm 18:35 Sunny 96 35.7 70 21.1 43 43 SSE 6 9 29.71 1006 10 16 N/A
6:55 pm 18:55 Sunny 96 35.5 70 21.1 43 43 SSE 6 9 29.71 1006 10 16 N/A
7:15 pm 19:15 Sunny 95 35.1 70 21.2 44 44 SE 7 11 29.71 1006 10 16 N/A
7:35 pm 19:35 Sunny 94 34.3 72 22.4 50 50 SSE 7 11 29.71 1006 10 16 N/A
7:55 pm 19:55 Sunny 92 33.4 73 22.9 54 54 S 6 9 29.71 1006 10 16 N/A
8:15 pm 20:15 Sunny 90 32.1 74 23.4 60 60 S 7 11 29.74 1007 10 16 N/A
8:35 pm 20:35 Sunny 87 30.6 73 22.7 63 63 S 8 13 29.74 1007 10 16 N/A
8:55 pm 20:55 Sunny 85 29.2 73 22.7 68 68 SSE 7 11 29.77 1008 10 16 N/A
9:15 pm 21:15 Clear 83 28.5 72 22.2 69 69 SSE 8 13 29.77 1008 10 16 N/A
9:35 pm 21:35 Clear 83 28.1 70 21.1 66 66 SSE 8 13 29.80 1009 10 16 N/A
9:55 pm 21:55 Clear 83 28.3 69 20.5 63 63 SSE 10 17 29.80 1009 10 16 N/A
10:15 pm 22:15 Clear 82 27.7 68 20.1 63 63 SSE 6 9 29.80 1009 10 16 N/A
10:35 pm 22:35 Clear 82 27.6 67 19.4 61 61 S 10 17 29.83 1010 10 16 N/A
10:55 pm 22:55 Clear 82 27.6 66 19.1 60 60 S 8 13 29.83 1010 10 16 N/A
11:15 pm 23:15 Clear 81 27.4 65 18.6 59 59 S 8 13 29.83 1010 10 16 N/A
11:35 pm 23:35 Clear 81 27 65 18.2 59 59 S 8 13 29.83 1010 10 16 N/A
11:55 pm 23:55 Clear 82 27.5 64 17.5 54 54 S 9 15 29.83 1010 10 16 N/A

Powered by AerisWeather